This is the latest recevied weather packets stored in our database for station/object HOTSPR-3. If no packets are shown the sender has not sent any weather packets the latest 10 day(s).
| Time | Temp. | Humidity | Pressure | Rain* | Wind** | Luminosity | Snow |
|---|---|---|---|---|---|---|---|
| 1777429072 | 21.67° C | 100% | 1009.2 hPa | 6.1 mm | - | - | - |
| 1777428772 | 21.67° C | 100% | 1009.3 hPa | 6.1 mm | - | - | - |
| 1777428472 | 21.67° C | 100% | 1009.1 hPa | 6.1 mm | - | - | - |
| 1777428172 | 21.67° C | 100% | 1009 hPa | 6.1 mm | - | - | - |
| 1777427872 | 21.67° C | 100% | 1008.9 hPa | 6.1 mm | - | - | - |
| 1777427571 | 21.67° C | 100% | 1008.7 hPa | 6.1 mm | - | - | - |
| 1777427271 | 21.67° C | 100% | 1008.5 hPa | 6.1 mm | - | - | - |
| 1777426971 | 22.22° C | 100% | 1008.5 hPa | 6.1 mm | - | - | - |
| 1777426671 | 22.22° C | 100% | 1008.3 hPa | 6.1 mm | - | - | - |
| 1777426371 | 22.22° C | 100% | 1008.3 hPa | 6.1 mm | - | - | - |
| 1777426070 | 22.22° C | 100% | 1008.1 hPa | 6.1 mm | - | - | - |
| 1777425770 | 22.22° C | 100% | 1008 hPa | 6.1 mm | - | - | - |
| 1777425470 | 22.22° C | 100% | 1008.1 hPa | 6.1 mm | - | - | - |
| 1777425170 | 22.22° C | 100% | 1008 hPa | 6.1 mm | - | - | - |
| 1777424870 | 22.22° C | 100% | 1007.8 hPa | 6.1 mm | - | - | - |
| 1777424569 | 22.22° C | 100% | 1007.8 hPa | 6.1 mm | - | - | - |
| 1777424269 | 22.22° C | 100% | 1008.1 hPa | 6.1 mm | - | - | - |
| 1777423669 | 22.22° C | 100% | 1008.4 hPa | 6.1 mm | - | - | - |
| 1777423069 | 22.22° C | 100% | 1009 hPa | 6.1 mm | - | - | - |
| 1777421868 | 22.22° C | 100% | 1007.4 hPa | 5.59 mm | - | - | - |
| 1777421268 | 22.78° C | 100% | 1008.1 hPa | 4.57 mm | - | - | - |
| 1777420363 | 22.78° C | 100% | 1008.9 hPa | 3.56 mm | - | - | - |
| 1777419763 | 22.78° C | 100% | 1009.3 hPa | 3.05 mm | - | - | - |
| 1777419162 | 22.78° C | 100% | 1008.7 hPa | 2.29 mm | - | - | - |
| 1777418862 | 22.78° C | 100% | 1008.8 hPa | 1.52 mm | - | - | - |
* Rain since midnight (hover to see other rain measurements)
** Current wind speed in m/s (hover to see current wind gust speed)